FW9322 Weather Reports


time (UTC)temp
F
wind
direction
speed
knots
gust
knots
rain 1hr
in
rain 24hr
in
rain mn
in
humidity
%
barometer
mb
20260504044544 61 16 2.6 11.3 0.00 0.00 0.00 71 1009.4
20260504043110 62 11 4.3 11.3 0.00 0.00 0.00 70 1009.5
20260504041549 62 32 4.3 13.9 0.00 0.00 0.00 70 1009.3
20260504040043 63 37 5.2 12.2 0.00 0.00 0.00 68 1009.4
20260504034552 62 310 5.2 12.2 0.00 0.00 0.00 69 1009.5
20260504033043 61 11 4.3 12.2 0.00 0.00 0.00 71 1009.5
20260504031552 60 34 4.3 14.8 0.00 0.00 0.00 70 1009.7
20260504030055 60 262 3.5 11.3 0.00 0.00 0.00 68 1010.0
20260504024543 62 40 3.5 10.4 0.00 0.00 0.00 66 1010.0
20260504023043 63 343 7.0 14.8 0.00 0.00 0.00 63 1010.2
20260504021549 63 274 6.1 13.0 0.00 0.00 0.00 64 1010.3
20260504020043 63 281 5.2 13.0 0.00 0.00 0.00 63 1010.8
20260504014549 62 316 6.1 17.4 0.00 0.00 0.00 65 1010.9
20260504013053 62 320 3.5 12.2 0.00 0.00 0.00 66 1011.0
20260504011541 62 330 5.2 17.4 0.00 0.00 0.00 66 1010.9
20260504010056 61 348 6.1 16.5 0.00 0.00 0.00 68 1010.9
20260504004547 61 245 5.2 12.2 0.00 0.06 0.00 70 1010.9
20260504003047 60 17 6.1 13.0 0.00 0.06 0.00 70 1010.9
20260504001543 60 336 7.0 17.4 0.00 0.06 0.00 69 1011.1
20260504000057 59 352 5.2 12.2 0.00 0.06 0.00 73 1011.2
20260503234550 59 25 5.2 13.9 0.00 0.23 0.00 75 1011.3
20260503233044 58 324 4.3 12.2 0.00 0.23 0.00 77 1011.0
20260503231543 57 37 4.3 9.6 0.00 0.23 0.00 77 1011.2
20260503230058 56 60 2.6 12.2 0.00 0.23 0.00 79 1011.6
20260503224543 55 40 2.6 8.7 0.00 0.23 0.00 80 1011.6
20260503223051 55 42 3.5 8.7 0.00 0.23 0.00 78 1011.7
20260503221551 55 46 2.6 7.0 0.00 0.23 0.00 82 1011.5
20260503220051 53 11 2.6 7.8 0.00 0.23 0.00 83 1011.4
20260503214554 52 43 1.7 7.8 0.00 0.23 0.00 83 1011.3
20260503213046 51 19 1.7 8.7 0.00 0.23 0.00 84 1011.3
20260503211549 51 352 0.9 7.0 0.00 0.23 0.00 85 1011.3
20260503210039 51 53 0.9 4.3 0.00 0.23 0.00 85 1011.4
20260503204547 51 27 1.7 7.0 0.00 0.23 0.00 84 1011.2
20260503203049 51 0 1.7 7.8 0.00 0.23 0.00 84 1011.3
20260503201550 52 0 1.7 7.0 0.00 0.23 0.00 83 1011.2
20260503200049 52 17 0.9 6.1 0.00 0.23 0.00 84 1011.2
20260503194559 52 24 1.7 7.0 0.00 0.23 0.00 84 1011.0
20260503193049 51 44 1.7 7.8 0.00 0.23 0.00 85 1011.0
20260503191552 51 64 2.6 7.8 0.00 0.23 0.00 85 1011.1
20260503190048 51 0 0.9 7.8 0.00 0.23 0.00 86 1011.2
20260503184544 51 350 0.9 4.3 0.00 0.23 0.00 87 1011.4
20260503183050 51 70 2.6 5.2 0.00 0.23 0.00 87 1011.5
20260503181557 51 332 0.9 3.5 0.00 0.23 0.00 88 1011.4
20260503180048 51 43 2.6 5.2 0.00 0.23 0.00 88 1011.6
20260503174556 51 54 1.7 7.0 0.00 0.23 0.00 88 1011.8
20260503173044 51 74 2.6 7.0 0.00 0.23 0.00 89 1011.9
20260503171543 51 57 3.5 7.8 0.00 0.23 0.00 89 1012.0
20260503081549 54 0 0.0 2.6 0.00 0.23 0.23 82 1011.5
20260503071554 60 0 0.0 5.2 0.00 0.23 0.23 70 1011.2
20260503054550 66 315 2.6 9.6 0.00 0.23 0.23 58 1011.0
20260503053048 66 312 3.5 11.3 0.00 0.23 0.23 58 1011.0